Rbgn^[z[y[W
メイン
   新天体発見情報
     Comet C/2024 J3 (ATLAS)
投稿するにはまず登録を

スレッド表示 | 新しいものから 前のトピック | 次のトピック | 下へ
投稿者 スレッド
佐藤裕久
投稿日時: 2024-6-17 18:06
モデレータ
登録日: 2005-6-12
居住地: 日本
投稿: 2697
オンライン
Comet C/2024 J3 (ATLAS)

5月6.3日UT、チリ Rio Hurtadoにある小惑星地球衝突最終警報システム Asteroid Terrestrial-impact  
Last Alert System (ATLAS)調査プログラムのコースに0.5-m Schmidt 反射望遠鏡で得た、CCD画像から
彗星が発見された。
James Robinsonの報告によると、5".7のシーイングで得た30-秒4枚スタックした発見画像では、9".0
(半値全幅: FWHM)の頭部が見えた。
小惑星センターのPCCP webpageに公表後、佐藤英貴氏(東京都文京区, 5月12.8日UT、120-秒露出6枚のス
タック, 0.51-m f/6.8 アストログラフ, Siding Spring, NSW, オーストラリア, 遠隔操作: 強く集光し
た 8"のコマが見えるが尾はなかった。7".6の円形範囲で測定した光度は17.8等であった)らCCD位置観測
者によって彗星状と観測された。

彗星機能の報告は次のとおり、

OC   Date        Reporter           Coma    Tail    PA          Exposures
I47  2024-05-09  M. Masek          11"
M49  2024-05-11  D. Husar           6"       10"    200-260
Q62  2024-05-12  H. Sato            8"                             6x120s
Q62  2024-05-17  T. Prystavski     12"       12"    216            7x180s
Y05  2024-05-19  C. Jacques        15"              223            60x60s

発見位置は次のとおり、

     2024 UT             R.A. (2000) Decl.       Mag.
     May   6.26497   19 28 46.96   -42 55 22.4   17.6
           6.26678   19 28 47.03   -42 55 23.3   18.6
           6.26964   19 28 46.87   -42 55 23.8   17.1
           6.27477   19 28 46.78   -42 55 23.9   18.0

MPCの楕円軌道要素、位置推算表は次のとおり、

Orbital elements:
    C/2024 J3 (ATLAS)                                                           
Epoch 2026 Nov. 16.0 TT = JDT 2461360.5                                         
T 2026 Nov. 24.59579 TT                                 Rudenko                 
q   3.8615853            (2000.0)            P               Q                  
z  +0.0000209      Peri.   74.11028     +0.30541809     -0.19918018             
 +/-0.0000000      Node   285.97328     -0.55161920     +0.76007432             
e   0.9999193      Incl.   75.59217     +0.77616754     +0.61855823             
From 70 observations 2024 May 6-28, mean residual 0".5.                         
                                                                                
Ephemeris:
Date    TT    R. A. (2000) Decl.     Delta      r    Elong.  Phase   m1
2024 04 29    19 30 12.0 -42 52 35   7.9965  8.3927   109.9     6.5  18.8
...
2024 05 14    19 26 35.8 -42 58 09   7.6944  8.3000   123.9     5.8  18.6
...
2024 05 22    19 23 37.4 -43 00 11   7.5476  8.2506   131.3     5.3  18.6
...
2024 05 28    19 20 56.3 -43 00 47   7.4457  8.2135   136.8     4.8  18.5
2024 05 29    19 20 27.3 -43 00 47   7.4295  8.2073   137.7     4.8  18.5
2024 05 30    19 19 57.7 -43 00 45   7.4135  8.2011   138.6     4.7  18.5
...
2024 06 05    19 16 47.9 -42 59 47   7.3224  8.1640   143.9     4.2  18.4
...
2024 06 13    19 12 05.8 -42 56 07   7.2152  8.1145   150.5     3.5  18.4
...
2024 06 28    19 02 11.6 -42 39 54   7.0622  8.0216   159.4     2.6  18.3

(MPEC 2024-K118、CBET 5398)

スレッド表示 | 新しいものから 前のトピック | 次のトピック | トップ

投稿するにはまず登録を
 
© 1999 Tsutomu Seki.